RPA8485 KLGA-KSAV

Flight info

Callsign RPA8485
Flight time 1h 45m
Altitude 32000
Route WHITE Q409 SESUE SOOOP
Aircraft E75L/M-SDE3GILORVW/S

Departure

Time 2026-04-26 17:36
Airport LaGuardia Airport (KLGA)

Arrival

Time 2026-04-26 19:21
Airport Savannah Hilton Head International Airport (KSAV)
Time Latitude Longitude Altitude Speed Heading
2026-04-26 17:17 40.77632 -73.87382 9 ft 0 kts 171°
2026-04-26 17:23 40.77642 -73.87384 9 ft 2 kts 171°
2026-04-26 17:24 40.77652 -73.87386 9 ft 1 kts 172°
2026-04-26 17:24 40.77665 -73.87392 9 ft 2 kts 139°
2026-04-26 17:24 40.77674 -73.87408 9 ft 2 kts 110°
2026-04-26 17:24 40.77676 -73.87427 9 ft 2 kts 80°
2026-04-26 17:25 40.77670 -73.87446 9 ft 2 kts 50°
2026-04-26 17:25 40.77663 -73.87454 9 ft 1 kts 31°
2026-04-26 17:25 40.77657 -73.87458 9 ft 0 kts 29°
2026-04-26 17:30 40.77659 -73.87457 9 ft 1 kts 29°
2026-04-26 17:30 40.77677 -73.87446 9 ft 4 kts 17°
2026-04-26 17:30 40.77718 -73.87447 9 ft 7 kts 355°
2026-04-26 17:30 40.77756 -73.87419 9 ft 7 kts 70°
2026-04-26 17:31 40.77762 -73.87398 9 ft 0 kts 65°
2026-04-26 17:31 40.77775 -73.87391 9 ft 4 kts 355°
2026-04-26 17:31 40.77813 -73.87412 9 ft 0 kts 343°
2026-04-26 17:31 40.77838 -73.87427 9 ft 6 kts 318°
2026-04-26 17:32 40.77862 -73.87459 9 ft 0 kts 334°
2026-04-26 17:32 40.77866 -73.87467 9 ft 3 kts 297°
2026-04-26 17:32 40.77889 -73.87535 9 ft 12 kts 294°
2026-04-26 17:32 40.77944 -73.87651 9 ft 15 kts 305°
2026-04-26 17:33 40.77999 -73.87763 9 ft 11 kts 302°
2026-04-26 17:33 40.78035 -73.87823 9 ft 3 kts 324°
2026-04-26 17:33 40.78059 -73.87831 9 ft 4 kts 349°
2026-04-26 17:34 40.78144 -73.87858 6 ft 0 kts 345°
2026-04-26 17:34 40.78156 -73.87862 6 ft 3 kts 346°
2026-04-26 17:34 40.78188 -73.87862 6 ft 5 kts 11°
2026-04-26 17:34 40.78212 -73.87829 6 ft 5 kts 111°
2026-04-26 17:35 40.78125 -73.87633 7 ft 55 kts 121°
2026-04-26 17:35 40.77811 -73.86977 6 ft 112 kts 122°
2026-04-26 17:35 40.77309 -73.85934 61 ft 148 kts 118°
2026-04-26 17:35 40.76728 -73.84763 449 ft 159 kts 119°
2026-04-26 17:36 40.76103 -73.83543 1057 ft 163 kts 121°
2026-04-26 17:36 40.75203 -73.82605 1561 ft 184 kts 157°
2026-04-26 17:36 40.73853 -73.82187 1856 ft 214 kts 166°
2026-04-26 17:36 40.72295 -73.82107 2335 ft 237 kts 195°
2026-04-26 17:37 40.70903 -73.83310 2997 ft 248 kts 225°
2026-04-26 17:37 40.69535 -73.84755 3554 ft 264 kts 211°
2026-04-26 17:37 40.67881 -73.85945 4084 ft 279 kts 204°
2026-04-26 17:38 40.64252 -73.87955 4945 ft 285 kts 199°
2026-04-26 17:38 40.62391 -73.88870 4974 ft 284 kts 199°
2026-04-26 17:38 40.60553 -73.89829 4978 ft 285 kts 204°
2026-04-26 17:38 40.58773 -73.90901 4980 ft 286 kts 203°
2026-04-26 17:39 40.56959 -73.91986 4980 ft 285 kts 203°
2026-04-26 17:39 40.55150 -73.93064 4980 ft 285 kts 203°
2026-04-26 17:39 40.53341 -73.94139 5210 ft 282 kts 203°
2026-04-26 17:39 40.51598 -73.95174 6036 ft 277 kts 203°
2026-04-26 17:40 40.49824 -73.96225 6572 ft 284 kts 203°
2026-04-26 17:40 40.48603 -73.96948 6916 ft 289 kts 204°
2026-04-26 17:40 40.46144 -73.98404 7673 ft 296 kts 204°
2026-04-26 17:40 40.44243 -73.99530 8295 ft 300 kts 204°
2026-04-26 17:41 40.42347 -74.00651 8936 ft 303 kts 205°
2026-04-26 17:41 40.40437 -74.01781 9621 ft 306 kts 205°
2026-04-26 17:41 40.38479 -74.02937 10213 ft 311 kts 205°
2026-04-26 17:41 40.36480 -74.04117 10795 ft 316 kts 205°
2026-04-26 17:42 40.34472 -74.05302 11326 ft 323 kts 206°
2026-04-26 17:42 40.32405 -74.06520 11808 ft 332 kts 206°
2026-04-26 17:42 40.30268 -74.07780 12272 ft 342 kts 206°
2026-04-26 17:42 40.28066 -74.09076 12830 ft 347 kts 206°
2026-04-26 17:43 40.25860 -74.10373 13479 ft 350 kts 207°
2026-04-26 17:43 40.23647 -74.11674 14161 ft 351 kts 207°
2026-04-26 17:43 40.21411 -74.12987 14828 ft 353 kts 207°
2026-04-26 17:43 40.19172 -74.14302 15449 ft 356 kts 208°
2026-04-26 17:44 40.16920 -74.15623 16033 ft 359 kts 208°
2026-04-26 17:44 40.14632 -74.16965 16573 ft 364 kts 208°
2026-04-26 17:44 40.12304 -74.18328 17164 ft 367 kts 208°
2026-04-26 17:44 40.09977 -74.19691 17720 ft 369 kts 208°
2026-04-26 17:45 40.07649 -74.21052 18271 ft 372 kts 208°
2026-04-26 17:45 40.05277 -74.22438 18808 ft 375 kts 208°
2026-04-26 17:45 40.02881 -74.23837 19302 ft 379 kts 209°
2026-04-26 17:45 40.00519 -74.25334 19786 ft 377 kts 218°
2026-04-26 17:46 39.98378 -74.27318 20289 ft 377 kts 221°
2026-04-26 17:46 39.96265 -74.29333 20785 ft 380 kts 222°
2026-04-26 17:46 39.94122 -74.31377 21280 ft 382 kts 222°
2026-04-26 17:46 39.91996 -74.33401 21771 ft 384 kts 222°
2026-04-26 17:47 39.89835 -74.35459 22247 ft 386 kts 222°
2026-04-26 17:47 39.88371 -74.36852 22558 ft 387 kts 222°
2026-04-26 17:47 39.85464 -74.39615 23126 ft 391 kts 222°
2026-04-26 17:47 39.83253 -74.41715 23563 ft 393 kts 222°
2026-04-26 17:48 39.81142 -74.43948 23990 ft 389 kts 231°
2026-04-26 17:48 39.79262 -74.46437 24433 ft 389 kts 231°
2026-04-26 17:48 39.77381 -74.48937 24890 ft 390 kts 231°
2026-04-26 17:48 39.75490 -74.51447 25336 ft 390 kts 231°
2026-04-26 17:49 39.73575 -74.53986 25779 ft 391 kts 231°
2026-04-26 17:49 39.71684 -74.56491 26168 ft 393 kts 231°
2026-04-26 17:49 39.69752 -74.59048 26578 ft 394 kts 231°
2026-04-26 17:49 39.67829 -74.61592 26951 ft 396 kts 231°
2026-04-26 17:50 39.65919 -74.64114 27345 ft 397 kts 231°
2026-04-26 17:50 39.63987 -74.66666 27762 ft 397 kts 230°
2026-04-26 17:50 39.62051 -74.69219 28150 ft 398 kts 230°
2026-04-26 17:50 39.60098 -74.71793 28548 ft 399 kts 230°
2026-04-26 17:51 39.58174 -74.74326 28930 ft 399 kts 230°
2026-04-26 17:51 39.56232 -74.76881 29323 ft 399 kts 230°
2026-04-26 17:51 39.54274 -74.79456 29696 ft 400 kts 230°
2026-04-26 17:51 39.52335 -74.82002 29925 ft 401 kts 230°
2026-04-26 17:52 39.48426 -74.87129 29950 ft 401 kts 230°
2026-04-26 17:52 39.44505 -74.92266 29947 ft 400 kts 229°
2026-04-26 17:53 39.40608 -74.97360 29945 ft 401 kts 230°
2026-04-26 17:54 39.34697 -75.05070 30510 ft 405 kts 229°
2026-04-26 17:54 39.32734 -75.07628 30889 ft 404 kts 229°
2026-04-26 17:54 39.30741 -75.10221 31235 ft 404 kts 229°
2026-04-26 17:54 39.28722 -75.12702 31471 ft 407 kts 226°
2026-04-26 17:55 39.26601 -75.15166 31736 ft 409 kts 226°
2026-04-26 17:55 39.24513 -75.17604 31933 ft 410 kts 226°
2026-04-26 17:55 39.20225 -75.22617 31942 ft 424 kts 226°
2026-04-26 17:56 39.18007 -75.25208 31951 ft 431 kts 226°
2026-04-26 17:57 39.08991 -75.35714 31937 ft 437 kts 225°
2026-04-26 17:57 39.04430 -75.40828 31938 ft 441 kts 219°
2026-04-26 17:58 38.92661 -75.45575 31947 ft 457 kts 187°
2026-04-26 17:59 38.83184 -75.46688 31933 ft 456 kts 190°
2026-04-26 17:59 38.76904 -75.47549 31932 ft 453 kts 191°
2026-04-26 18:00 38.70674 -75.48405 31930 ft 451 kts 190°
2026-04-26 18:00 38.64440 -75.49252 31929 ft 450 kts 191°
2026-04-26 18:01 38.58218 -75.50096 31932 ft 450 kts 191°
2026-04-26 18:01 38.52001 -75.50939 31924 ft 451 kts 191°
2026-04-26 18:02 38.46811 -75.51642 31925 ft 450 kts 190°
2026-04-26 18:02 38.39543 -75.52623 31934 ft 449 kts 191°
2026-04-26 18:03 38.33575 -75.54327 31944 ft 436 kts 206°
2026-04-26 18:03 38.28394 -75.58166 31948 ft 431 kts 218°
2026-04-26 18:04 38.23472 -75.62473 31938 ft 432 kts 218°
2026-04-26 18:05 38.16019 -75.68957 31941 ft 431 kts 217°
2026-04-26 18:05 38.11079 -75.73244 31942 ft 432 kts 217°
2026-04-26 18:06 38.06130 -75.77533 31939 ft 430 kts 217°
2026-04-26 18:06 38.01188 -75.81807 31932 ft 430 kts 217°
2026-04-26 18:07 37.96251 -75.86072 31937 ft 432 kts 217°
2026-04-26 18:07 37.91291 -75.90347 31934 ft 433 kts 217°
2026-04-26 18:08 37.86309 -75.94636 31936 ft 431 kts 217°
2026-04-26 18:08 37.81332 -75.98914 31936 ft 434 kts 217°
2026-04-26 18:09 37.76351 -76.03186 31931 ft 433 kts 217°
2026-04-26 18:09 37.71381 -76.07443 31932 ft 433 kts 217°
2026-04-26 18:10 37.66410 -76.11694 31922 ft 432 kts 217°
2026-04-26 18:10 37.61464 -76.15916 31913 ft 431 kts 217°
2026-04-26 18:11 37.56518 -76.20145 31917 ft 430 kts 217°
2026-04-26 18:11 37.51546 -76.24393 31915 ft 432 kts 217°
2026-04-26 18:12 37.46590 -76.28619 31922 ft 431 kts 217°
2026-04-26 18:12 37.41631 -76.32842 31913 ft 430 kts 216°
2026-04-26 18:13 37.36684 -76.37048 31911 ft 430 kts 216°
2026-04-26 18:13 37.31713 -76.41266 31909 ft 431 kts 216°
2026-04-26 18:14 37.26762 -76.45461 31912 ft 431 kts 216°
2026-04-26 18:14 37.21803 -76.49656 31906 ft 430 kts 216°
2026-04-26 18:15 37.16835 -76.53852 31904 ft 432 kts 216°
2026-04-26 18:15 37.12706 -76.57334 31907 ft 428 kts 216°
2026-04-26 18:16 37.06912 -76.62212 31903 ft 428 kts 216°
2026-04-26 18:16 36.99504 -76.68437 31906 ft 432 kts 215°
2026-04-26 18:17 36.94527 -76.72611 31904 ft 431 kts 215°
2026-04-26 18:17 36.89533 -76.76792 31904 ft 432 kts 215°
2026-04-26 18:18 36.84549 -76.80957 31902 ft 432 kts 215°
2026-04-26 18:18 36.79539 -76.85137 31907 ft 432 kts 215°
2026-04-26 18:19 36.74538 -76.89304 31904 ft 432 kts 215°
2026-04-26 18:19 36.69574 -76.93434 31906 ft 432 kts 215°
2026-04-26 18:20 36.64556 -76.97601 31896 ft 432 kts 215°
2026-04-26 18:20 36.60417 -77.01035 31900 ft 432 kts 215°
2026-04-26 18:21 36.54578 -77.05869 31892 ft 431 kts 215°
2026-04-26 18:21 36.49566 -77.10012 31890 ft 434 kts 215°
2026-04-26 18:22 36.44564 -77.14140 31885 ft 432 kts 215°
2026-04-26 18:22 36.39552 -77.18271 31886 ft 431 kts 215°
2026-04-26 18:23 36.34557 -77.22379 31884 ft 433 kts 215°
2026-04-26 18:23 36.29600 -77.26646 31885 ft 433 kts 220°
2026-04-26 18:24 36.24888 -77.31313 31883 ft 433 kts 219°
2026-04-26 18:24 36.20166 -77.35915 31879 ft 435 kts 219°
2026-04-26 18:25 36.15421 -77.40527 31870 ft 432 kts 219°
2026-04-26 18:25 36.10680 -77.45126 31871 ft 435 kts 219°
2026-04-26 18:26 36.05938 -77.49721 31870 ft 434 kts 219°
2026-04-26 18:26 36.01170 -77.54333 31869 ft 436 kts 219°
2026-04-26 18:27 35.96379 -77.58958 31865 ft 436 kts 219°
2026-04-26 18:27 35.91620 -77.63547 31866 ft 436 kts 219°
2026-04-26 18:28 35.86789 -77.68198 31872 ft 438 kts 219°
2026-04-26 18:28 35.82005 -77.72796 31862 ft 437 kts 219°
2026-04-26 18:29 35.77183 -77.77424 31863 ft 441 kts 219°
2026-04-26 18:29 35.72368 -77.82037 31854 ft 440 kts 219°
2026-04-26 18:30 35.67517 -77.86677 31861 ft 440 kts 219°
2026-04-26 18:30 35.62698 -77.91280 31851 ft 441 kts 219°
2026-04-26 18:31 35.57838 -77.95914 31855 ft 441 kts 219°
2026-04-26 18:31 35.53001 -78.00519 31854 ft 443 kts 220°
2026-04-26 18:32 35.48110 -78.05168 31848 ft 442 kts 220°
2026-04-26 18:32 35.43234 -78.09795 31846 ft 443 kts 220°
2026-04-26 18:33 35.38389 -78.14387 31846 ft 442 kts 220°
2026-04-26 18:33 35.33512 -78.19001 31848 ft 443 kts 220°
2026-04-26 18:34 35.28651 -78.23593 31833 ft 442 kts 220°
2026-04-26 18:34 35.23778 -78.28189 31835 ft 442 kts 221°
2026-04-26 18:35 35.18901 -78.32783 31840 ft 443 kts 221°
2026-04-26 18:35 35.14024 -78.37370 31836 ft 443 kts 221°
2026-04-26 18:36 35.09160 -78.41936 31829 ft 443 kts 221°
2026-04-26 18:36 35.04268 -78.46523 31842 ft 443 kts 221°
2026-04-26 18:37 34.99375 -78.51102 31837 ft 444 kts 221°
2026-04-26 18:37 34.94461 -78.55695 31834 ft 443 kts 221°
2026-04-26 18:38 34.89615 -78.60217 31832 ft 443 kts 221°
2026-04-26 18:38 34.84711 -78.64786 31825 ft 442 kts 222°
2026-04-26 18:39 34.79821 -78.69334 31829 ft 442 kts 221°
2026-04-26 18:39 34.74935 -78.73874 31828 ft 443 kts 221°
2026-04-26 18:40 34.70028 -78.78424 31824 ft 443 kts 221°
2026-04-26 18:40 34.65125 -78.82964 31821 ft 444 kts 221°
2026-04-26 18:41 34.60242 -78.87479 31819 ft 444 kts 221°
2026-04-26 18:41 34.55302 -78.92039 31811 ft 444 kts 222°
2026-04-26 18:42 34.50411 -78.96549 31810 ft 444 kts 222°
2026-04-26 18:42 34.45486 -79.01068 31806 ft 443 kts 222°
2026-04-26 18:43 34.40529 -79.05447 31799 ft 444 kts 220°
2026-04-26 18:43 34.35476 -79.09774 31792 ft 443 kts 220°
2026-04-26 18:44 34.30425 -79.14099 31790 ft 443 kts 220°
2026-04-26 18:44 34.25404 -79.18420 31781 ft 442 kts 224°
2026-04-26 18:45 34.20687 -79.23130 31775 ft 441 kts 225°
2026-04-26 18:45 34.15920 -79.27834 31774 ft 440 kts 225°
2026-04-26 18:46 34.11188 -79.32491 31774 ft 442 kts 225°
2026-04-26 18:46 34.06428 -79.37166 31770 ft 440 kts 225°
2026-04-26 18:47 34.01684 -79.41819 31767 ft 441 kts 225°
2026-04-26 18:47 33.96914 -79.46491 31753 ft 442 kts 225°
2026-04-26 18:48 33.92160 -79.51139 31749 ft 441 kts 225°
2026-04-26 18:48 33.87371 -79.55797 31743 ft 444 kts 223°
2026-04-26 18:49 33.82023 -79.59654 31746 ft 450 kts 216°
2026-04-26 18:49 33.76587 -79.63352 31741 ft 449 kts 216°
2026-04-26 18:50 33.71154 -79.67048 31757 ft 451 kts 216°
2026-04-26 18:50 33.65736 -79.70726 31752 ft 446 kts 216°
2026-04-26 18:51 33.60375 -79.74361 31751 ft 446 kts 216°
2026-04-26 18:51 33.54972 -79.78020 31751 ft 445 kts 216°
2026-04-26 18:52 33.49575 -79.81670 31740 ft 448 kts 216°
2026-04-26 18:52 33.44115 -79.85355 31742 ft 447 kts 216°
2026-04-26 18:53 33.38730 -79.88987 30815 ft 447 kts 216°
2026-04-26 18:53 33.36098 -79.90752 29978 ft 422 kts 216°
2026-04-26 18:53 33.33617 -79.92423 28823 ft 408 kts 216°
2026-04-26 18:54 33.31189 -79.94057 27688 ft 395 kts 216°
2026-04-26 18:54 33.28826 -79.95646 26562 ft 383 kts 216°
2026-04-26 18:54 33.26535 -79.97185 25540 ft 370 kts 216°
2026-04-26 18:54 33.24376 -79.98633 25077 ft 354 kts 216°
2026-04-26 18:55 33.22189 -80.00105 24618 ft 365 kts 216°
2026-04-26 18:55 33.19944 -80.01611 24156 ft 374 kts 215°
2026-04-26 18:55 33.17652 -80.03148 23688 ft 381 kts 215°
2026-04-26 18:55 33.15294 -80.04727 23203 ft 387 kts 215°
2026-04-26 18:56 33.12929 -80.06310 22741 ft 392 kts 215°
2026-04-26 18:56 33.10534 -80.07911 22275 ft 396 kts 214°
2026-04-26 18:56 33.08128 -80.09520 21811 ft 400 kts 214°
2026-04-26 18:56 33.05683 -80.11152 21353 ft 404 kts 214°
2026-04-26 18:57 33.03207 -80.12805 20888 ft 407 kts 214°
2026-04-26 18:57 33.01541 -80.13917 20579 ft 409 kts 214°
2026-04-26 18:57 32.98179 -80.16158 19955 ft 411 kts 214°
2026-04-26 18:57 32.95671 -80.17830 19498 ft 413 kts 213°
2026-04-26 18:58 32.93184 -80.19486 19031 ft 411 kts 213°
2026-04-26 18:58 32.90671 -80.21157 18565 ft 409 kts 213°
2026-04-26 18:58 32.88157 -80.22829 18098 ft 409 kts 213°
2026-04-26 18:58 32.85658 -80.24490 17631 ft 408 kts 213°
2026-04-26 18:59 32.83199 -80.26122 17175 ft 403 kts 213°
2026-04-26 18:59 32.80756 -80.27743 16722 ft 399 kts 212°
2026-04-26 18:59 32.78310 -80.29366 16270 ft 396 kts 212°
2026-04-26 18:59 32.75941 -80.30936 15812 ft 392 kts 212°
2026-04-26 19:00 32.73564 -80.32510 15362 ft 388 kts 212°
2026-04-26 19:00 32.71183 -80.34087 14896 ft 387 kts 212°
2026-04-26 19:00 32.68863 -80.35622 14436 ft 384 kts 212°
2026-04-26 19:00 32.66535 -80.37162 13983 ft 382 kts 212°
2026-04-26 19:01 32.64224 -80.38689 13525 ft 377 kts 212°
2026-04-26 19:01 32.61941 -80.40197 13076 ft 375 kts 212°
2026-04-26 19:01 32.59666 -80.41698 12622 ft 373 kts 211°
2026-04-26 19:01 32.57394 -80.43197 12172 ft 371 kts 211°
2026-04-26 19:02 32.55150 -80.44677 11718 ft 370 kts 212°
2026-04-26 19:02 32.52911 -80.46152 11268 ft 369 kts 211°
2026-04-26 19:02 32.50685 -80.47618 10834 ft 366 kts 211°
2026-04-26 19:02 32.49174 -80.48612 10746 ft 365 kts 211°
2026-04-26 19:03 32.46237 -80.50544 10708 ft 362 kts 212°
2026-04-26 19:03 32.44047 -80.51984 10701 ft 359 kts 212°
2026-04-26 19:03 32.41869 -80.53414 10719 ft 356 kts 211°
2026-04-26 19:03 32.39689 -80.54846 10725 ft 355 kts 211°
2026-04-26 19:04 32.37696 -80.56501 10722 ft 348 kts 231°
2026-04-26 19:04 32.36461 -80.58890 10748 ft 343 kts 248°
2026-04-26 19:04 32.35518 -80.61491 10729 ft 343 kts 249°
2026-04-26 19:04 32.34589 -80.64089 10735 ft 343 kts 249°
2026-04-26 19:05 32.32883 -80.68881 10697 ft 293 kts 249°
2026-04-26 19:05 32.32130 -80.70997 10705 ft 274 kts 249°
2026-04-26 19:05 32.31396 -80.73064 10714 ft 272 kts 249°
2026-04-26 19:06 32.30660 -80.75137 10725 ft 276 kts 249°
2026-04-26 19:06 32.29911 -80.77241 10735 ft 277 kts 249°
2026-04-26 19:06 32.29164 -80.79341 10740 ft 279 kts 249°
2026-04-26 19:06 32.28409 -80.81458 10723 ft 279 kts 249°
2026-04-26 19:07 32.27651 -80.83581 10729 ft 277 kts 250°
2026-04-26 19:07 32.26900 -80.85689 10720 ft 278 kts 249°
2026-04-26 19:07 32.26145 -80.87802 10720 ft 278 kts 249°
2026-04-26 19:07 32.25398 -80.89893 10725 ft 278 kts 249°
2026-04-26 19:08 32.24659 -80.91960 10397 ft 266 kts 250°
2026-04-26 19:08 32.23946 -80.93951 9652 ft 265 kts 250°
2026-04-26 19:08 32.23225 -80.95968 8837 ft 266 kts 250°
2026-04-26 19:08 32.22514 -80.97955 8022 ft 266 kts 249°
2026-04-26 19:09 32.21799 -80.99951 7204 ft 265 kts 249°
2026-04-26 19:09 32.21083 -81.01947 6409 ft 264 kts 249°
2026-04-26 19:09 32.20371 -81.03931 5615 ft 263 kts 249°
2026-04-26 19:09 32.19668 -81.05888 4829 ft 262 kts 249°
2026-04-26 19:10 32.18959 -81.07861 4039 ft 261 kts 249°
2026-04-26 19:10 32.18261 -81.09804 3256 ft 260 kts 249°
2026-04-26 19:10 32.17552 -81.11778 2788 ft 262 kts 249°
2026-04-26 19:10 32.16835 -81.13769 2733 ft 260 kts 249°
2026-04-26 19:11 32.16131 -81.15726 2720 ft 261 kts 249°
2026-04-26 19:11 32.15447 -81.17709 2715 ft 260 kts 258°
2026-04-26 19:11 32.15390 -81.19822 2745 ft 256 kts 278°
2026-04-26 19:11 32.15706 -81.21912 2723 ft 254 kts 292°
2026-04-26 19:12 32.16345 -81.23779 2545 ft 237 kts 295°
2026-04-26 19:12 32.16974 -81.25550 1902 ft 238 kts 295°
2026-04-26 19:12 32.17651 -81.27447 1766 ft 250 kts 295°
2026-04-26 19:12 32.18331 -81.29333 1729 ft 252 kts 295°
2026-04-26 19:13 32.19021 -81.31242 1718 ft 250 kts 295°
2026-04-26 19:13 32.19696 -81.33129 1721 ft 250 kts 295°
2026-04-26 19:13 32.20379 -81.35020 1718 ft 249 kts 295°
2026-04-26 19:13 32.21056 -81.36903 1718 ft 250 kts 295°
2026-04-26 19:14 32.21735 -81.38799 1714 ft 249 kts 295°
2026-04-26 19:14 32.22410 -81.40688 1719 ft 249 kts 295°
2026-04-26 19:14 32.23087 -81.42559 1715 ft 250 kts 295°
2026-04-26 19:14 32.23315 -81.43191 1715 ft 250 kts 296°
2026-04-26 19:15 32.24364 -81.46345 1705 ft 243 kts 279°
2026-04-26 19:15 32.24074 -81.48185 1724 ft 229 kts 237°
2026-04-26 19:15 32.22829 -81.49345 1755 ft 230 kts 195°
2026-04-26 19:15 32.21236 -81.49259 1773 ft 229 kts 152°
2026-04-26 19:16 32.20114 -81.48014 1775 ft 223 kts 114°
2026-04-26 19:16 32.19477 -81.46349 1731 ft 222 kts 111°
2026-04-26 19:16 32.18858 -81.44675 1721 ft 223 kts 110°
2026-04-26 19:16 32.18234 -81.42991 1711 ft 220 kts 111°
2026-04-26 19:17 32.17653 -81.41426 1673 ft 199 kts 111°
2026-04-26 19:17 32.17107 -81.39954 1735 ft 193 kts 110°
2026-04-26 19:17 32.16546 -81.38482 1717 ft 195 kts 115°
2026-04-26 19:17 32.15814 -81.37147 1719 ft 195 kts 126°
2026-04-26 19:18 32.14920 -81.35939 1715 ft 196 kts 131°
2026-04-26 19:18 32.13926 -81.34809 1711 ft 197 kts 135°
2026-04-26 19:18 32.13083 -81.33585 1716 ft 193 kts 102°
2026-04-26 19:18 32.12951 -81.32043 1651 ft 192 kts 86°
2026-04-26 19:19 32.12949 -81.30473 1431 ft 189 kts 87°
2026-04-26 19:19 32.12937 -81.28945 1238 ft 180 kts 88°
2026-04-26 19:19 32.12925 -81.27490 967 ft 175 kts 88°
2026-04-26 19:19 32.12912 -81.26077 718 ft 169 kts 89°
2026-04-26 19:20 32.12900 -81.24719 495 ft 163 kts 89°
2026-04-26 19:20 32.12893 -81.23843 359 ft 158 kts 89°
2026-04-26 19:20 32.12877 -81.22156 97 ft 149 kts 89°
2026-04-26 19:20 32.12869 -81.20976 22 ft 135 kts 90°
2026-04-26 19:21 32.12855 -81.19991 40 ft 98 kts 87°
2026-04-26 19:21 32.12864 -81.19547 46 ft 0 kts 92°